Weather in Poretskoe

Russia / Chuvash Republic     55°11′39″N   46°19′31″E
temp.,
°C
wind,
m/s
gust,
m/s
humid.,
%
clouds,
%
prec.,
mm/h
press.,
hPa
HPBL,
m
18 april, sun
sun1800:00+6ene411753 0.0 1022310
03:00+4ne411810 0.0 1022237
06:00+4ne39820 0.0 1023263
09:00+10ene58540 0.0 1022700
12:00+13ene56380 0.0 10221372
15:00+14ene673740 0.0 10221776
18:00+12ene595099 0.0 1022496
21:00+7ene71371100 0.0 1024640
19 april, mon
mon1900:00+5ene61270100 0.0 1025576
03:00+3ene51155100 0.0 1026486
06:00+2ene61366100 0.0 1026584
09:00+5e81151100 0.0 1027867
12:00+7e91139100 0.0 10261291
15:00+8e81046100 0.0 10261474
18:00+7e71153100 0.0 10271374
21:00+5e6115399 0.0 1027885
20 april, tue
tue2000:00+4e6124971 0.0 1028591
03:00+2e612565 0.0 1028418
06:00+2e613625 0.0 1029508
09:00+7ese811455 0.0 1029984
12:00+9ese810363 0.0 10291421
15:00+10ese8103451 0.0 10281493
18:00+8ese7123696 0.0 10261266
21:00+6ese81538100 0.0 1026798
21 april, wed
wed2100:00+5ese91642100 0.0 1024863
03:00+4se91846100 0.0 1023860
06:00+3se101956100 0.3 1021822
09:00+3se101965100 1.8 1021878
12:00+2se102087100 3.1 1021844
15:00+3se91787100 4.3 1021842
18:00+3sse91688100 0.6 1021738
21:00+3sse81589100 0.6 1022629
22 april, thu
thu2200:00+4sse61292100 0.4 1022529
03:00+3sse5129586 0.4 1023390
06:00+4sse61194100 0.0 1024454
09:00+6sse51092100 0.0 1025474
12:00+6sse589296 0.3 1026349
15:00+10s5679100 0.3 1026774
18:00+8sse3786100 0.1 1027243
21:00+7sse3794100 0.1 1027231